Location: Newark
(10.6000°N, 104.1667°E)
Time: 13:21:00
(UTC+00:00)

N. Korean satellite - Visible Passes

Search period start: 18 November 2019 00:00
Search period end: 28 November 2019 00:00
Orbit: 456 x 506 km, 97.2° (Epoch: 17 November)

Date Brightness Start Highest point End Pass type
(mag) Time Alt. Az. Time Alt. Az. Time Alt. Az.
18 Nov 7.5 22:27:20 10° NNE 22:30:53 54° E 22:34:24 10° S visible
19 Nov 9.5 22:02:48 10° NE 22:05:31 20° E 22:08:14 10° SSE visible
21 Nov 9.5 11:03:07 10° SSW 11:05:59 23° W 11:08:52 10° NW visible
22 Nov 8.2 22:19:20 10° NNE 22:22:43 38° E 22:26:02 10° S visible
23 Nov 9.9 21:55:11 10° ENE 21:57:19 15° E 21:59:26 10° SE visible
24 Nov 10.2 11:21:38 10° SW 11:23:10 12° W 11:24:42 10° WNW visible
25 Nov 6.7 22:36:17 10° NNE 22:39:51 81° ESE 22:43:21 10° S visible
26 Nov 8.9 22:11:23 10° NE 22:14:29 28° E 22:17:31 10° SSE visible
27 Nov 10.2 21:48:01 10° E 21:49:04 11° E 21:50:07 10° ESE visible
